Location: Unspecified
(33.8426°N, 132.7625°E)
Time: 01:59:04
(UTC+09:00)

N. Korean satellite - Visible Passes

Search period start: 23 September 2018 00:00
Search period end: 03 October 2018 00:00
Orbit: 458 x 511 km, 97.2° (Epoch: 21 September)

Date Brightness Start Highest point End Pass type
(mag) Time Alt. Az. Time Alt. Az. Time Alt. Az.
23 Sep 9.5 18:31:22 10° SSW 18:34:09 23° W 18:37:00 10° NW visible
26 Sep 10.2 18:53:15 10° WSW 18:54:40 12° W 18:56:07 10° WNW visible
27 Sep 9.2 18:27:13 10° SSW 18:30:11 25° W 18:33:13 10° NW visible
29 Sep 10.2 05:34:05 10° ENE 05:36:17 15° E 05:38:27 10° SE visible
30 Sep 10.0 18:48:48 10° SW 18:50:40 14° W 18:52:34 10° WNW visible
01 Oct 9.0 18:23:04 10° SSW 18:26:11 29° W 18:29:23 10° NW visible
